Location: St Paul
(33.4390°N, 83.7350°W)
Time: 22:26:28
(UTC-04:00)

Cosmos 2360 - Pass Details

Date: 06 October 2017
Orbit: 847 x 856 km, 70.8° (Epoch: 22 October)

Event Time Altitude Azimuth Distance (km) Brightness Sun altitude
Rises 20:33:42 0° 343° (NNW) 3,427 7.7 -17.8°
Reaches altitude 10° 20:36:13 10° 348° (NNW) 2,489 6.9 -18.3°
Maximum altitude 20:41:50 57° 67° (ENE) 1,004 4.3 -19.5°
Enters shadow 20:44:27 31° 131° (SE) 1,458 5.0 -20.0°
